Duluth, MN

11:37 PM CDT on October 19, 2017 (GMT -0500)
Duluth International

Weather History for KDLH - October, 2012

Change the Weather History Date:

Saturday, October 13, 2012

  Actual Average Record
Temperature  
Mean Temperature 43 °F 44 °F  
Max Temperature 45 °F 53 °F 80 °F (1956)
Min Temperature 40 °F 36 °F 19 °F (1917)
Degree Days  
Heating Degree Days 22 21  
Month to date heating degree days 292 238  
Since 1 July heating degree days 620 685  
Cooling Degree Days 0 0  
Month to date cooling degree days 0 0  
Year to date cooling degree days 409 204  
Moisture  
Dew Point 37 °F    
Average Humidity 70    
Maximum Humidity 100    
Minimum Humidity 39    
Precipitation  
Precipitation 0.03 in 0.09 in 2.27 in (1920)
Month to date precipitation 0.44 1.36  
Year to date precipitation 29.53 26.17  
Snow  
Snow 0.00 in 0.00 in 1.00 in (1997)
Month to date snowfall 0.9 0.4  
Since 1 July snowfall 1.0 0.5  
Since 1 September snowfall 1.0 0.5  
Snow Depth 0.00 in    
Sea Level Pressure  
Sea Level Pressure 29.83 in    
Wind  
Wind Speed 5 mph (SSE)    
Max Wind Speed 17 mph    
Max Gust Speed 24 mph    
Visibility 4 miles    
Events Fog    
T = Trace of Precipitation, MM = Missing Value Source: NWS Daily Summary

Daily Weather History Graph

Daily Weather History Graph

Search for Another Location

Airport or City:

Trip Planner

Search our weather history database for the weather conditions in past years. The results will help you decide how hot, cold, wet, or windy it might be!

Date:

Astronomy

Oct. 13, 2012 Rise Set
Actual Time 7:24 AM CDT 6:24 PM CDT
Civil Twilight 6:53 AM CDT 6:54 PM CDT
Nautical Twilight 6:18 AM CDT 7:29 PM CDT
Astronomical Twilight 5:43 AM CDT 8:05 PM CDT
Moon 5:09 AM CDT (10/13) 5:11 PM CDT (10/13)
Length of Visible Light 12h 00m
Length of Day
10h 59m
Waning Crescent, 5% of the Moon is Illuminated
Oct 13
Waning Crescent
Oct 15
New
Oct 21
First Quarter
Oct 29
Full
Nov 6
Last Quarter

Hourly Weather History & Observations

Time (CDT) Temp. Windchill Dew Point Humidity Pressure Visibility Wind Dir Wind Speed Gust Speed Precip Events Conditions
12:55 AM 43.0 °F 36.8 °F 19.9 °F 40% 30.04 in 10.0 mi South 11.5 mph - N/A   Overcast
1:55 AM 43.0 °F 38.2 °F 19.9 °F 40% 30.01 in 10.0 mi South 8.1 mph - N/A   Overcast
2:55 AM 44.1 °F 38.1 °F 21.0 °F 40% 29.97 in 10.0 mi SSE 11.5 mph - N/A   Overcast
3:55 AM 43.0 °F 38.8 °F 23.0 °F 45% 29.94 in 10.0 mi SE 6.9 mph - N/A   Overcast
4:55 AM 44.1 °F 39.5 °F 27.0 °F 51% 29.91 in 10.0 mi SE 8.1 mph - N/A   Overcast
5:55 AM 44.1 °F 39.0 °F 32.0 °F 63% 29.91 in 10.0 mi South 9.2 mph - N/A   Overcast
6:38 AM 42.8 °F 37.0 °F 35.6 °F 76% 29.84 in 10.0 mi SSE 10.4 mph 19.6 mph N/A   Overcast
6:50 AM 42.8 °F 36.2 °F 35.6 °F 76% 29.83 in 10.0 mi South 12.7 mph - N/A   Overcast
6:55 AM 42.1 °F 34.9 °F 36.0 °F 79% 29.88 in 10.0 mi South 13.8 mph 19.6 mph N/A   Overcast
7:12 AM 41.0 °F 35.2 °F 35.6 °F 81% 29.83 in 10.0 mi SSE 9.2 mph - N/A   Overcast
7:55 AM 39.9 °F 35.1 °F 37.9 °F 93% 29.86 in 2.0 mi SSE 6.9 mph - N/A   Overcast
8:39 AM 39.2 °F 34.2 °F 37.4 °F 93% 29.82 in 3.0 mi SSE 6.9 mph - N/A   Overcast
8:47 AM 39.2 °F 35.0 °F 37.4 °F 93% 29.82 in 1.8 mi SE 5.8 mph - N/A   Overcast
8:55 AM 39.9 °F 36.7 °F 37.9 °F 93% 29.87 in 1.2 mi SSE 4.6 mph - N/A   Overcast
9:32 AM 41.0 °F 35.8 °F 37.4 °F 87% 29.81 in 1.5 mi SSE 8.1 mph - 0.00 in   Light Drizzle
9:55 AM 41.0 °F 36.4 °F 39.0 °F 93% 29.85 in 1.8 mi SE 6.9 mph - 0.01 in   Light Drizzle
10:03 AM 41.0 °F 36.4 °F 39.2 °F 93% 29.80 in 2.5 mi SE 6.9 mph - 0.00 in   Light Drizzle
10:16 AM 41.0 °F 36.4 °F 39.2 °F 93% 29.81 in 4.0 mi SSE 6.9 mph - 0.00 in   Light Drizzle
10:38 AM 41.0 °F 37.1 °F 39.2 °F 93% 29.79 in 1.8 mi SSE 5.8 mph - N/A   Overcast
10:55 AM 41.0 °F 36.4 °F 39.0 °F 93% 29.83 in 1.0 mi SSE 6.9 mph - 0.00 in   Light Drizzle
11:31 AM 42.8 °F 39.3 °F 39.2 °F 87% 29.77 in 2.0 mi SSE 5.8 mph - 0.00 in   Light Drizzle
11:55 AM 42.1 °F 38.4 °F 39.9 °F 92% 29.81 in 2.5 mi South 5.8 mph - 0.00 in   Overcast
12:55 PM 43.0 °F 38.8 °F 41.0 °F 93% 29.78 in 2.5 mi SSE 6.9 mph - 0.01 in   Overcast
1:55 PM 43.0 °F 40.3 °F 42.1 °F 97% 29.78 in 2.0 mi South 4.6 mph - N/A   Overcast
2:09 PM 42.8 °F 40.1 °F 41.0 °F 93% 29.73 in 1.2 mi South 4.6 mph - N/A   Overcast
2:22 PM 42.8 °F 40.1 °F 41.0 °F 93% 29.73 in 0.8 mi SSE 4.6 mph - N/A   Light Drizzle
2:55 PM 44.1 °F - 42.1 °F 93% 29.76 in 0.8 mi Calm Calm - 0.00 in   Light Drizzle
3:55 PM 45.0 °F - 43.0 °F 93% 29.75 in 0.8 mi Calm Calm - 0.01 in   Overcast
4:09 PM 44.6 °F - 42.8 °F 93% 29.72 in 2.0 mi Calm Calm - N/A   Overcast
4:55 PM 45.0 °F 43.5 °F 43.0 °F 93% 29.75 in 2.0 mi ESE 3.5 mph - N/A   Overcast
5:55 PM 44.1 °F 42.5 °F 43.0 °F 96% 29.78 in 1.0 mi SSE 3.5 mph - N/A   Overcast
6:13 PM 44.6 °F 43.1 °F 42.8 °F 93% 29.75 in 0.2 mi SSE 3.5 mph - N/A Fog Fog
6:55 PM 42.8 °F - 41.0 °F 93% 29.75 in 0.2 mi Calm Calm - N/A Fog Fog
7:55 PM 42.1 °F - 41.0 °F 96% 29.80 in 0.2 mi Calm Calm - N/A Fog Fog
8:55 PM 42.8 °F 40.1 °F 41.0 °F 93% 29.78 in 0.2 mi ESE 4.6 mph - N/A Fog Fog
9:55 PM 42.1 °F 40.2 °F 41.0 °F 96% 29.83 in 0.2 mi ESE 3.5 mph - N/A Fog Fog
10:55 PM 42.1 °F 40.2 °F 39.9 °F 92% 29.84 in 0.2 mi East 3.5 mph - N/A Fog Fog
11:55 PM 42.1 °F 39.2 °F 39.9 °F 92% 29.83 in 0.5 mi ENE 4.6 mph - N/A Fog Fog